Regional Weather Roundup
Issued by NWS

Home | Current Version | Previous Version | Text Only | Print | Product List | Glossary On
Versions: 1 2 3 4 5 6 7 8 9 10 11 12 13 14 15 16 17 18 19 20 21 22 23 24 25 26 27 28 29 30 31 32 33 34 35 36 37 38 39 40 41 42 43 44 45 46 47 48 49 50
000
ASUS43 KIND 190909
RWRIN

WEATHER ROUNDUP FOR INDIANA
NATIONAL WEATHER SERVICE INDIANAPOLIS IN
400 AM EST FRI DEC 19 2014

NOTE: "FAIR" INDICATES FEW OR NO CLOUDS BELOW 12,000 FEET WITH NO
SIGNIFICANT WEATHER AND/OR OBSTRUCTIONS TO VISIBILITY.

* - STATION DOES NOT REPORT WEATHER SUCH AS PRECIPITATION OR FOG.

+ - STATION NOT QUALITY CONTROLLED BY THE NATIONAL WEATHER SERVICE.
    USE DATA WITH CAUTION...ESPECIALLY DEWPOINT AND RELATIVE
    HUMIDITY OBSERVATIONS.

INZ001>003-010>013-019-020-191000-
NORTHWEST INDIANA

CITY           SKY/WX    TMP DP  RH WIND       PRES   REMARKS
GARY /AIRPORT/ CLOUDY    31  21  66 W7        30.27S WCI  24
KNOX *+        CLOUDY    26  20  77 W6        30.25S WCI  20
LA PORTE +     CLOUDY    29  24  82 W8        30.25F WCI  21
MICHIGAN CITY+ CLOUDY    28  21  74 SW5       30.25S WCI  23
MONTICELLO +   CLOUDY    25  21  86 W5        30.26S WCI  19
RENSSELAER +   CLOUDY    27  27 100 W7        30.27S WCI  19
VALPARAISO     CLOUDY    26  22  84 W7        30.26S WCI  18

$$

LMZ046-743>745-191000-
SOUTHERN LAKE MICHIGAN

STATION/POSITION TIME  TEMP WIND        PRES
                       AIR  DIR/SP/G
                 (UTC) (F)  (DEG/KT/KT) (MB)

$$

INZ004-005-014>016-021>024-191000-
NORTH CENTRAL INDIANA

CITY           SKY/WX    TMP DP  RH WIND       PRES   REMARKS
GOSHEN         CLOUDY    26  23  88 W6        30.23F FOG     WCI  19
LOGANSPORT +   CLOUDY    27  21  80 W6        30.27R WCI  20
PERU/GRISSOM   CLOUDY    26  25  95 W8        30.25R WCI  17
ROCHESTER +    CLOUDY    28  23  80 W7        30.26R WCI  21
SOUTH BEND     CLOUDY    27  22  81 W6        30.24S WCI  20
WARSAW +       CLOUDY    27  23  86 W6        30.24S FOG     WCI  20

$$

INZ006>009-017-018-025>027-191000-
NORTHEAST INDIANA

CITY           SKY/WX    TMP DP  RH WIND       PRES   REMARKS
ANGOLA *+      CLOUDY    27  23  86 W8        30.20F WCI  18
AUBURN +       CLOUDY    28  23  80 W5        30.23S WCI  23
FORT WAYNE     CLOUDY    27  22  81 W10       30.24F WCI  17
HUNTINGTON +   CLOUDY    26  21  83 W5        30.24S WCI  20

$$

INZ028-029-035-036-043>045-051>053-191000-
WEST CENTRAL INDIANA

CITY           SKY/WX    TMP DP  RH WIND       PRES   REMARKS
CRAWFORDSVL +  PTCLDY    21  16  79 CALM      30.27S
GREENCASTLE +  CLOUDY    27  19  74 CALM      30.27S
LAFAYETTE      CLEAR     18  15  88 CALM      30.28S
TERRE HAUTE    CLOUDY    28  22  78 N5        30.28F WCI  23

$$

INZ030>032-037>040-046>048-054>057-064-065-191000-
CENTRAL INDIANA

CITY           SKY/WX    TMP DP  RH WIND       PRES   REMARKS
CP ATTERBURY + CLEAR     19  18  93 MISG      30.28R
FRANKFORT +    MOCLDY    21  21 100 SW5       30.28S WCI  15
GREENWOOD *+   CLEAR     21  18  86 NW3       30.27
INDIANAPOLIS   PTCLDY    21  18  88 CALM      30.26R
-EAGLE CREEK   CLEAR     23  19  85 NW3       30.25S
KOKOMO *+      CLOUDY    27  19  74 NW9       30.26R WCI  17
MARION +       CLOUDY    26  22  85 NW7       30.25S WCI  18
MT COMFORT *+  CLEAR     19  18  93 W3        30.26S
SHELBYVILLE    CLEAR     24  19  81 NW6       30.26R WCI  17
ZIONSVILLE +   CLEAR     23  18  83 NW5       30.26S WCI  16

$$

INZ033-034-041-042-049-050-058-059-191000-
EAST CENTRAL INDIANA

CITY           SKY/WX    TMP DP  RH WIND       PRES   REMARKS
MUNCIE         CLOUDY    25  19  78 CALM      30.23F

$$

INZ060-061-067>069-081>083-085>088-191000-
SOUTHWEST INDIANA

CITY           SKY/WX    TMP DP  RH WIND       PRES   REMARKS
EVANSVILLE     CLOUDY    32  25  75 N6        30.29S WCI  26
HUNTINGBURG *+ MOCLDY    28  21  74 N5        30.28S WCI  23
WASHINGTON +   CLOUDY    27  23  82 N3        30.29R

$$

INZ062-063-066-070>080-084-089>092-191000-
SOUTH CENTRAL AND SOUTHEAST INDIANA

CITY           SKY/WX    TMP DP  RH WIND       PRES   REMARKS
BLOOMINGTON    CLEAR     22  20  92 CALM      30.26R FOG
NORTH VERNON + MOCLDY    25  25 100 CALM      30.26  FOG

$$



USA.gov is the U.S. government's official web portal to all federal, state and local government web resources and services.